Regional Weather Roundup
Issued by NWS

Home | Current Version | Previous Version | Graphics & Text | Print | Product List | Glossary Off
Versions: 1 2 3 4 5 6 7 8 9 10 11 12 13 14 15 16 17 18 19 20 21 22 23 24 25 26 27 28 29 30 31 32 33 34 35 36 37 38 39 40 41 42 43 44 45 46 47 48 49 50

857
ASUS43 KMKX 311000
RWRWI

WISCONSIN REGIONAL WEATHER ROUNDUP
NATIONAL WEATHER SERVICE MILWAUKEE/SULLIVAN WI
500 AM CDT TUE MAY 31 2016

NOTE: "FAIR" INDICATES FEW OR NO CLOUDS BELOW 12,000 FEET WITH NO
SIGNIFICANT WEATHER AND/OR OBSTRUCTIONS TO VISIBILITY.

WIZ001-002-006>008-014>016-023>028-311100-
NORTHWEST WISCONSIN

CITY           SKY/WX    TMP DP  RH WIND       PRES   REMARKS
SUPERIOR ARPT  CLOUDY    45  42  90 NE13G25   30.01S
ASHLAND        CLOUDY    48  45  89 NE8       30.01S
HAYWARD        CLOUDY    57  49  74 NE5       29.95S
SIREN          CLOUDY    63  56  78 E7        29.89F
CUMBERLAND     CLOUDY    63  52  67 E3        29.89F
RICE LAKE      CLOUDY    65  54  65 E8        29.91F
CHETEK         CLOUDY    65  56  74 E6        29.90F
LADYSMITH      MOCLDY    62  55  76 E5        29.97F
EAU CLAIRE     NOT AVBL
MENOMONIE      CLOUDY    65  57  75 SE15      29.89R
NEW RICHMOND   CLOUDY    64  54  69 E10       29.86F
OSCEOLA        CLOUDY    66  55  67 E14       29.87F
$$

WIZ003>005-009-010-017-018-311100-
NORTH CENTRAL WISCONSIN

CITY           SKY/WX    TMP DP  RH WIND       PRES   REMARKS
MANITOWISH WTR NOT AVBL
ARBOR VITAE    CLOUDY    57  52  85 SE7       30.04R
WOODRUFF       CLOUDY    57  52  85 SE7       30.04R
RHINELANDER    MOCLDY    52  48  86 E8        30.05R
EAGLE RIVER      N/A     51  46  83 E7        30.06R
LAND O LAKES   CLOUDY    49  46  87 E5        30.06R
PHILLIPS       CLOUDY    57  49  74 E5        29.99S
TOMAHAWK       CLOUDY    57  49  74 E5        30.03S
MEDFORD        CLOUDY    60  55  82 SE3       29.98F
MERRILL        CLOUDY    58  52  79 SE10      30.03S
$$

WIZ029-030-035-036-043>047-311100-
CENTRAL WISCONSIN

CITY           SKY/WX    TMP DP  RH WIND       PRES   REMARKS
WAUSAU         CLOUDY    59  51  75 E12       30.00F
MOSINEE        MOCLDY    57  54  88 E9        30.02F
MARSHFIELD     CLOUDY    63  55  75 E9        29.96F
STEVENS POINT  CLOUDY    60  53  78 E9        30.01F
WAUPACA        CLOUDY    62  60  93 NE5       30.02F
WAUTOMA        CLOUDY   N/A N/A N/A CALM      30.00F
WISC RAPIDS    CLOUDY    62  55  77 E6        29.99F
CAMP DOUGLAS   NOT AVBL
$$

WIZ011>013-019>022-031-037>040-048>050-311100-
NORTHEAST WISCONSIN

CITY           SKY/WX    TMP DP  RH WIND       PRES   REMARKS
ANTIGO         CLOUDY    52  48  87 SE7       30.05R
SHAWANO        CLOUDY    58  50  77 E8        30.06R
OCONTO         PTCLDY    53  50  90 NE7       30.06S
STURGEON BAY   NOT AVBL
GREEN BAY      CLOUDY    58  53  84 NE14      30.05R
MANITOWOC      NOT AVBL
APPLETON       PTCLDY    59  52  77 NE10      30.02F
CLINTONVILLE   CLOUDY    55  50  82 E5        30.04F
OSHKOSH        CLOUDY    66  57  72 CALM      30.01F
$$

WIZ032>034-041-042-053>061-311100-
SOUTHWEST WISCONSIN

CITY           SKY/WX    TMP DP  RH WIND       PRES   REMARKS
LA CROSSE      MOCLDY    64  59  83 SE10      29.91S
SPARTA         PTCLDY    60  60  99 E5        29.94S
VIROQUA        MOCLDY    60  59  96 SE8       29.95F
BOSCOBEL       NOT AVBL
PRAIRIE DU CHI CLOUDY    61  60  96 CALM      29.94S
PLATTEVILLE    PTCLDY    62  59  91 E9        29.96F
$$

WIZ056-057-062-063-064-067-068-311100-
SOUTH CENTRAL WISCONSIN

CITY           SKY/WX    TMP DP  RH WIND       PRES   REMARKS
REEDSBURG      MOCLDY    63  56  80 E3        29.97S
BARABOO/DELLS  MOCLDY    65  53  67 CALM      29.98F
LONE ROCK      NOT AVBL
MINERAL POINT  CLEAR     63  55  77 E8        29.97S
MADISON        CLOUDY    63  59  87 SE6       30.00S
MIDDLETON      CLOUDY    64  60  85 E5        30.00S
WATERTOWN      MOCLDY    61  61 100 NE5       30.01F
MONROE         MOCLDY    61  55  82 E7        29.99F
JANESVILLE     CLOUDY    63  55  77 CALM      29.99R
$$

WIZ051-052-058>065-066-070>072-311100-
SOUTHEAST WISCONSIN

CITY           SKY/WX    TMP DP  RH WIND       PRES   REMARKS
MILWAUKEE      LGT RAIN  63  57  81 E14       29.97F
WAUKESHA       CLOUDY    63  52  67 NW12      30.03R
MILWAUKEE/TIMM PTCLDY    63  52  67 SE3       30.01S
RACINE         MOCLDY    63  57  81 CALM      30.02R
BURLINGTON     CLOUDY    62  56  81 CALM      30.01R
KENOSHA        CLOUDY    62  55  77 E3        30.00R
FOND DU LAC    CLOUDY    64  58  80 S7        30.01F
SHEBOYGAN      MOCLDY    60  55  83 N9        30.05R
WEST BEND      CLOUDY    63  54  72 W9        30.04R
JUNEAU         LGT RAIN  62  58  87 CALM      30.03F
$$

LSZ147-162-311100-
LAKE SUPERIOR

STATION/POSITION TIME  TEMP    WIND        PRES    WAVE
                       AIR SEA DIR/SP/G            HT/PER
                 (UTC) (F)     (DEG/KT/KT) (MB)    (FT/S)
W MID LAKE BUOY  0850   41 38   80/ 17/ 19 1018.6S   2/ 4
DEVILS ISLAND    0900   44      70/ 19/ 22 1017.9S
SAXON HARBOR     0940   51      CALM  /  2 1015.6S
$$

LMZ867-665-643>646-311100-
LAKE MICHIGAN

STATION/POSITION TIME  TEMP    WIND        PRES    WAVE
                       AIR SEA DIR/SP/G            HT/PER
                 (UTC) (F)     (DEG/KT/KT) (MB)    (FT/S)
CHAMBERS ISLAND  0900   53      10/ 16/ 19 1017.9R
N MID LAKE BUOY  0850   50 49   20/ 10/ 12 1017.5R   2/ 4
NORTHPORT PIER   0900   53      40/  9/ 11 1017.9R
KEWAUNEE LAKESHO 0900   53      20/ 12/ 18 1016.4R
SHEBOYGAN LAKESH 0900   63     240/  4/  4 1016.0R
PORT WASHINGTON  0900   60      CALM  /  1 1016.3F
S MID LAKE BUOY  0850   59 56  110/  6/  6 1015.1F   0
KENOSHA   LAKESH 0900   61      CALM  /  2 1015.2F
$$

TC  - TEMPERATURE IN CELSIUS
VSB - VISIBILITY IN STATUTE MILES
WCI - WIND CHILL INDEX
HX  - HEAT INDEX





USA.gov is the U.S. government's official web portal to all federal, state and local government web resources and services.